Overview Statistics Trail Chart Weather Telemetry Raw packets
 

This is the latest recevied weather packets stored in our database for station/object 4S6DRJ-13. If no packets are shown the sender has not sent any weather packets the latest 10 day(s).

<< 538 539 540 541 542 543 544 >>
Time Temp. Humidity Pressure Rain* Wind** Luminosity Snow
1787621975 25° C 93% 1011.1 hPa 7.87 mm 0.89 m/s, 235° 82 W/m² -
1787621915 25° C 93% 1010.7 hPa 7.87 mm 0.89 m/s, 221° 73 W/m² -
1787621853 25° C 93% 1010.9 hPa 7.87 mm 1.34 m/s, 233° 63 W/m² -
1787621792 25° C 92% 1010.9 hPa 7.87 mm 0.89 m/s, 166° 45 W/m² -
1787621731 25° C 92% 1010.9 hPa 7.87 mm 2.24 m/s, 245° 31 W/m² -
1787621670 25° C 92% 1010.8 hPa 7.87 mm 0.89 m/s, 193° 29 W/m² -
1787621609 25° C 92% 1010.8 hPa 7.62 mm 0.45 m/s, 215° 26 W/m² -
1787621548 25° C 92% 1010.8 hPa 7.62 mm 1.79 m/s, 237° 20 W/m² -
1787621487 25° C 92% 1010.7 hPa 7.62 mm 1.34 m/s, 299° 18 W/m² -
1787621426 25° C 92% 1010.8 hPa 7.62 mm 1.79 m/s, 194° 21 W/m² -
1787621365 25° C 92% 1010.7 hPa 7.62 mm 0.89 m/s, 206° 25 W/m² -
1787621304 25° C 91% 1010.8 hPa 7.37 mm 1.79 m/s, 110° 27 W/m² -
1787621243 25° C 91% 1010.9 hPa 5.33 mm 0.89 m/s, 266° 24 W/m² -
1787621182 25° C 91% 1011 hPa 2.79 mm 3.13 m/s, 210° 21 W/m² -
1787621121 25° C 91% 1010.9 hPa 1.27 mm 2.68 m/s, 328° 20 W/m² -
1787620999 25° C 91% 1010.7 hPa 0.51 mm 1.34 m/s, 279° 11 W/m² -
1787620938 25° C 90% 1010.8 hPa 0.51 mm 2.24 m/s, 330° 7 W/m² -
1787620878 25.56° C 90% 1010.8 hPa 0.51 mm 2.24 m/s, 294° 4 W/m² -
1787620816 25.56° C 90% 1010.7 hPa 0.51 mm 1.79 m/s, 320° 4 W/m² -
1787620754 25.56° C 90% 1010.6 hPa 0.25 mm 0.89 m/s, 327° 4 W/m² -
1787620694 25.56° C 91% 1010.6 hPa 0 mm 3.13 m/s, 351° 4 W/m² -
1787620633 25.56° C 91% 1010.8 hPa 0 mm 2.24 m/s, 343° 4 W/m² -
1787620572 25.56° C 91% 1010.7 hPa 0 mm 1.34 m/s, 306° 4 W/m² -
1787620511 25.56° C 91% 1010.6 hPa 0 mm 1.34 m/s, 306° 4 W/m² -
1787620450 25.56° C 91% 1010.4 hPa 0 mm 1.79 m/s, 291° 8 W/m² -

* Rain latest hour (hover to see other rain measurements)
** Current wind speed in m/s (hover to see current wind gust speed)